Time,TemperatureF,DewpointF,PressureIn,WindDirection,WindDirectionDegrees,WindSpeedMPH,WindSpeedGustMPH,Humidity,HourlyPrecipIn,Conditions,Clouds,dailyrainin,SoftwareType,DateUTC
2013-02-12 00:00:00,31.0,23.0,29.97,West,281,8.0,17.0,72,0.00,,---,0.00,VWS V14.01,2013-02-12 05:00:00,
2013-02-12 00:05:00,31.0,23.0,29.97,SE,131,1.0,10.0,72,0.00,,---,0.00,VWS V14.01,2013-02-12 05:05:00,
2013-02-12 00:10:00,31.0,23.4,29.98,SSW,211,3.0,14.0,73,0.00,,---,0.00,VWS V14.01,2013-02-12 05:10:00,
2013-02-12 00:15:00,31.0,23.4,29.97,SW,228,2.0,14.0,73,0.00,,---,0.00,VWS V14.01,2013-02-12 05:15:00,
2013-02-12 00:20:00,30.9,23.3,29.98,South,172,6.0,14.0,73,0.00,,---,0.00,VWS V14.01,2013-02-12 05:20:00,
2013-02-12 00:25:00,30.9,23.3,29.98,WNW,287,7.0,14.0,73,0.00,,---,0.00,VWS V14.01,2013-02-12 05:25:00,
2013-02-12 00:30:00,30.9,23.3,29.98,WSW,255,5.0,14.0,73,0.00,,---,0.00,VWS V14.01,2013-02-12 05:30:00,
2013-02-12 00:35:00,30.8,23.5,29.98,NNE,32,3.0,10.0,74,0.00,,---,0.00,VWS V14.01,2013-02-12 05:35:00,
2013-02-12 00:40:00,30.8,23.5,29.99,NW,308,2.0,12.0,74,0.00,,---,0.00,VWS V14.01,2013-02-12 05:40:00,
2013-02-12 00:45:00,30.8,23.5,29.99,NW,321,5.0,12.0,74,0.00,,---,0.00,VWS V14.01,2013-02-12 05:45:00,
2013-02-12 00:50:00,30.7,23.4,29.99,West,270,5.0,12.0,74,0.00,,---,0.00,VWS V14.01,2013-02-12 05:50:00,
2013-02-12 00:55:00,30.7,23.4,29.99,WNW,284,0.0,13.0,74,0.00,,---,0.00,VWS V14.01,2013-02-12 05:55:00,
2013-02-12 01:00:00,30.7,23.1,30.00,NNW,335,2.0,15.0,73,0.00,,---,0.00,VWS V14.01,2013-02-12 06:00:00,
2013-02-12 01:05:00,30.6,23.3,30.00,WNW,302,3.0,9.0,74,0.00,,---,0.00,VWS V14.01,2013-02-12 06:05:00,
2013-02-12 01:10:00,30.5,22.9,30.00,WNW,300,3.0,11.0,73,0.00,,---,0.00,VWS V14.01,2013-02-12 06:10:00,
2013-02-12 01:15:00,30.5,22.9,29.99,NW,304,2.0,11.0,73,0.00,,---,0.00,VWS V14.01,2013-02-12 06:15:00,
2013-02-12 01:20:00,30.4,22.8,29.99,WNW,301,5.0,11.0,73,0.00,,---,0.00,VWS V14.01,2013-02-12 06:20:00,
2013-02-12 01:25:00,30.4,22.8,29.99,NW,321,3.0,12.0,73,0.00,,---,0.00,VWS V14.01,2013-02-12 06:25:00,
2013-02-12 01:30:00,30.4,23.1,30.00,West,276,0.0,12.0,74,0.00,,---,0.00,VWS V14.01,2013-02-12 06:30:00,
2013-02-12 01:35:00,30.4,23.1,30.00,West,278,1.0,9.0,74,0.00,,---,0.00,VWS V14.01,2013-02-12 06:35:00,
2013-02-12 01:40:00,30.4,23.1,30.00,West,281,2.0,9.0,74,0.00,,---,0.00,VWS V14.01,2013-02-12 06:40:00,
2013-02-12 01:45:00,30.4,23.1,30.00,West,278,0.0,10.0,74,0.00,,---,0.00,VWS V14.01,2013-02-12 06:45:00,
2013-02-12 01:50:00,30.4,23.1,30.00,West,259,5.0,10.0,74,0.00,,---,0.00,VWS V14.01,2013-02-12 06:50:00,
2013-02-12 01:55:00,30.5,23.2,30.00,NW,304,2.0,10.0,74,0.00,,---,0.00,VWS V14.01,2013-02-12 06:55:00,
2013-02-12 02:00:00,30.5,23.2,30.01,West,263,4.0,10.0,74,0.00,,---,0.00,VWS V14.01,2013-02-12 07:00:00,
2013-02-12 02:05:00,30.5,23.2,30.01,WNW,285,1.0,8.0,74,0.00,,---,0.00,VWS V14.01,2013-02-12 07:05:00,
2013-02-12 02:10:00,30.5,23.2,30.01,West,259,1.0,10.0,74,0.00,,---,0.00,VWS V14.01,2013-02-12 07:10:00,
2013-02-12 02:16:00,30.5,23.5,30.01,West,264,1.0,10.0,75,0.00,,---,0.00,VWS V14.01,2013-02-12 07:16:00,
2013-02-12 02:21:00,30.5,23.9,30.01,West,263,0.0,10.0,76,0.00,,---,0.00,VWS V14.01,2013-02-12 07:21:00,
2013-02-12 02:26:00,30.4,23.8,30.01,WNW,292,2.0,10.0,76,0.00,,---,0.00,VWS V14.01,2013-02-12 07:26:00,
2013-02-12 02:30:00,30.2,23.6,30.03,WNW,300,4.0,11.0,76,0.00,,---,0.00,VWS V14.01,2013-02-12 07:30:00,
2013-02-12 02:31:00,30.4,23.8,30.01,West,260,3.0,12.0,76,0.00,,---,0.00,VWS V14.01,2013-02-12 07:31:00,
2013-02-12 02:36:00,30.4,23.8,30.01,WNW,291,3.0,3.0,76,0.00,,---,0.00,VWS V14.01,2013-02-12 07:36:00,
2013-02-12 02:41:00,30.4,23.8,30.02,West,281,4.0,7.0,76,0.00,,---,0.00,VWS V14.01,2013-02-12 07:41:00,
2013-02-12 02:46:00,30.4,23.8,30.02,West,273,3.0,8.0,76,0.00,,---,0.00,VWS V14.01,2013-02-12 07:46:00,
2013-02-12 02:51:00,30.4,23.8,30.02,WNW,302,3.0,8.0,76,0.00,,---,0.00,VWS V14.01,2013-02-12 07:51:00,
2013-02-12 02:56:00,30.3,23.7,30.02,West,281,1.0,8.0,76,0.00,,---,0.00,VWS V14.01,2013-02-12 07:56:00,
2013-02-12 03:00:00,30.1,22.8,30.04,WNW,300,3.0,10.0,74,0.00,,---,0.00,VWS V14.01,2013-02-12 08:00:00,
2013-02-12 03:01:00,30.3,23.7,30.03,NW,326,4.0,9.0,76,0.00,,---,0.00,VWS V14.01,2013-02-12 08:01:00,
2013-02-12 03:06:00,30.3,23.7,30.03,WSW,249,9.0,11.0,76,0.00,,---,0.00,VWS V14.01,2013-02-12 08:06:00,
2013-02-12 03:11:00,30.3,23.7,30.03,WNW,285,3.0,11.0,76,0.00,,---,0.00,VWS V14.01,2013-02-12 08:11:00,
2013-02-12 03:16:00,30.3,23.7,30.03,SW,235,2.0,11.0,76,0.00,,---,0.00,VWS V14.01,2013-02-12 08:16:00,
2013-02-12 03:21:00,30.3,23.7,30.03,WSW,245,2.0,11.0,76,0.00,,---,0.00,VWS V14.01,2013-02-12 08:21:00,
2013-02-12 03:26:00,30.3,24.0,30.03,WNW,283,2.0,11.0,77,0.00,,---,0.00,VWS V14.01,2013-02-12 08:26:00,
2013-02-12 03:30:00,29.9,23.0,30.05,NW,313,2.0,10.0,75,0.00,,---,0.00,VWS V14.01,2013-02-12 08:30:00,
2013-02-12 03:31:00,30.2,23.9,30.03,WSW,256,4.0,11.0,77,0.00,,---,0.00,VWS V14.01,2013-02-12 08:31:00,
2013-02-12 03:36:00,30.2,23.6,30.03,West,273,2.0,7.0,76,0.00,,---,0.00,VWS V14.01,2013-02-12 08:36:00,
2013-02-12 03:41:00,30.2,23.6,30.03,SW,226,0.0,7.0,76,0.00,,---,0.00,VWS V14.01,2013-02-12 08:41:00,
2013-02-12 03:46:00,30.2,23.2,30.04,West,276,1.0,10.0,75,0.00,,---,0.00,VWS V14.01,2013-02-12 08:46:00,
2013-02-12 03:51:00,30.2,23.2,30.04,WSW,238,4.0,10.0,75,0.00,,---,0.00,VWS V14.01,2013-02-12 08:51:00,
2013-02-12 03:56:00,30.1,23.1,30.04,WSW,256,4.0,10.0,75,0.00,,---,0.00,VWS V14.01,2013-02-12 08:56:00,
2013-02-12 04:00:00,29.9,23.3,30.05,WNW,302,0.0,10.0,76,0.00,,---,0.00,VWS V14.01,2013-02-12 09:00:00,
2013-02-12 04:01:00,30.1,22.8,30.04,WSW,257,2.0,10.0,74,0.00,,---,0.00,VWS V14.01,2013-02-12 09:01:00,
2013-02-12 04:06:00,30.1,22.8,30.04,SW,236,2.0,8.0,74,0.00,,---,0.00,VWS V14.01,2013-02-12 09:06:00,
2013-02-12 04:11:00,30.0,22.7,30.04,SW,235,6.0,10.0,74,0.00,,---,0.00,VWS V14.01,2013-02-12 09:11:00,
2013-02-12 04:16:00,30.0,22.7,30.04,West,269,4.0,10.0,74,0.00,,---,0.00,VWS V14.01,2013-02-12 09:16:00,
2013-02-12 04:21:00,30.0,23.0,30.04,NNW,327,3.0,10.0,75,0.00,,---,0.00,VWS V14.01,2013-02-12 09:21:00,
2013-02-12 04:26:00,29.9,23.0,30.05,NW,304,2.0,10.0,75,0.00,,---,0.00,VWS V14.01,2013-02-12 09:26:00,
2013-02-12 04:30:00,29.7,23.4,30.06,WSW,237,2.0,11.0,77,0.00,,---,0.00,VWS V14.01,2013-02-12 09:30:00,
2013-02-12 04:31:00,29.9,23.0,30.05,West,259,2.0,10.0,75,0.00,,---,0.00,VWS V14.01,2013-02-12 09:31:00,
2013-02-12 04:36:00,29.9,23.0,30.05,SSW,210,1.0,10.0,75,0.00,,---,0.00,VWS V14.01,2013-02-12 09:36:00,
2013-02-12 04:41:00,29.9,23.0,30.05,WNW,288,3.0,10.0,75,0.00,,---,0.00,VWS V14.01,2013-02-12 09:41:00,
2013-02-12 04:46:00,29.9,23.3,30.05,West,269,4.0,10.0,76,0.00,,---,0.00,VWS V14.01,2013-02-12 09:46:00,
2013-02-12 04:51:00,29.9,23.3,30.05,NW,323,0.0,10.0,76,0.00,,---,0.00,VWS V14.01,2013-02-12 09:51:00,
2013-02-12 04:56:00,29.9,23.3,30.05,WNW,297,1.0,10.0,76,0.00,,---,0.00,VWS V14.01,2013-02-12 09:56:00,
2013-02-12 05:00:00,29.5,23.5,30.07,SW,216,3.0,10.0,78,0.00,,---,0.00,VWS V14.01,2013-02-12 10:00:00,
2013-02-12 05:01:00,29.9,23.3,30.05,WNW,302,1.0,10.0,76,0.00,,---,0.00,VWS V14.01,2013-02-12 10:01:00,
2013-02-12 05:06:00,29.9,23.3,30.05,West,264,3.0,5.0,76,0.00,,---,0.00,VWS V14.01,2013-02-12 10:06:00,
2013-02-12 05:11:00,29.9,23.6,30.05,West,278,2.0,6.0,77,0.00,,---,0.00,VWS V14.01,2013-02-12 10:11:00,
2013-02-12 05:16:00,29.8,23.5,30.05,WSW,247,4.0,6.0,77,0.00,,---,0.00,VWS V14.01,2013-02-12 10:16:00,
2013-02-12 05:21:00,29.8,23.5,30.05,SSW,212,4.0,11.0,77,0.00,,---,0.00,VWS V14.01,2013-02-12 10:21:00,
2013-02-12 05:26:00,29.7,23.4,30.05,WSW,255,1.0,11.0,77,0.00,,---,0.00,VWS V14.01,2013-02-12 10:26:00,
2013-02-12 05:30:00,29.0,22.7,30.07,WNW,294,4.0,12.0,77,0.00,,---,0.00,VWS V14.01,2013-02-12 10:30:00,
2013-02-12 05:31:00,29.7,23.4,30.06,West,276,5.0,11.0,77,0.00,,---,0.00,VWS V14.01,2013-02-12 10:31:00,
2013-02-12 05:36:00,29.7,23.7,30.06,WSW,250,2.0,7.0,78,0.00,,---,0.00,VWS V14.01,2013-02-12 10:36:00,
2013-02-12 05:41:00,29.7,23.7,30.06,NW,325,1.0,7.0,78,0.00,,---,0.00,VWS V14.01,2013-02-12 10:41:00,
2013-02-12 05:46:00,29.6,23.3,30.06,West,274,0.0,7.0,77,0.00,,---,0.00,VWS V14.01,2013-02-12 10:46:00,
2013-02-12 05:51:00,29.6,23.3,30.07,WNW,286,4.0,10.0,77,0.00,,---,0.00,VWS V14.01,2013-02-12 10:51:00,
2013-02-12 05:56:00,29.6,23.3,30.07,West,276,0.0,10.0,77,0.00,,---,0.00,VWS V14.01,2013-02-12 10:56:00,
2013-02-12 06:00:00,28.7,22.7,30.07,WSW,239,8.0,9.0,78,0.00,,---,0.00,VWS V14.01,2013-02-12 11:00:00,
2013-02-12 06:02:00,29.5,23.2,30.07,SSW,195,3.0,10.0,77,0.00,,---,0.00,VWS V14.01,2013-02-12 11:02:00,
2013-02-12 06:07:00,29.4,23.1,30.07,West,262,0.0,7.0,77,0.00,,---,0.00,VWS V14.01,2013-02-12 11:07:00,
2013-02-12 06:12:00,29.4,23.1,30.07,WNW,300,0.0,9.0,77,0.00,,---,0.00,VWS V14.01,2013-02-12 11:12:00,
2013-02-12 06:17:00,29.3,23.3,30.07,SW,215,6.0,11.0,78,0.00,,---,0.00,VWS V14.01,2013-02-12 11:17:00,
2013-02-12 06:22:00,29.2,22.9,30.07,West,269,5.0,11.0,77,0.00,,---,0.00,VWS V14.01,2013-02-12 11:22:00,
2013-02-12 06:27:00,29.1,22.8,30.07,West,280,2.0,12.0,77,0.00,,---,0.00,VWS V14.01,2013-02-12 11:27:00,
2013-02-12 06:30:00,28.6,22.9,30.08,WNW,300,1.0,10.0,79,0.00,,---,0.00,VWS V14.01,2013-02-12 11:30:00,
2013-02-12 06:32:00,29.1,22.8,30.07,SW,232,5.0,12.0,77,0.00,,---,0.00,VWS V14.01,2013-02-12 11:32:00,
2013-02-12 06:37:00,29.0,22.7,30.08,SW,229,2.0,9.0,77,0.00,,---,0.00,VWS V14.01,2013-02-12 11:37:00,
2013-02-12 06:42:00,28.9,22.9,30.08,North,1,4.0,9.0,78,0.00,,---,0.00,VWS V14.01,2013-02-12 11:42:00,
2013-02-12 06:47:00,28.9,22.9,30.08,NW,304,1.0,9.0,78,0.00,,---,0.00,VWS V14.01,2013-02-12 11:47:00,
2013-02-12 06:52:00,28.8,22.8,30.07,West,273,1.0,9.0,78,0.00,,---,0.00,VWS V14.01,2013-02-12 11:52:00,
2013-02-12 06:57:00,28.8,22.8,30.07,WSW,243,0.0,9.0,78,0.00,,---,0.00,VWS V14.01,2013-02-12 11:57:00,
2013-02-12 07:00:00,28.6,22.6,30.09,West,263,1.0,11.0,78,0.00,,---,0.00,VWS V14.01,2013-02-12 12:00:00,
2013-02-12 07:02:00,28.7,22.7,30.07,WSW,239,3.0,9.0,78,0.00,,---,0.00,VWS V14.01,2013-02-12 12:02:00,
2013-02-12 07:07:00,28.7,22.7,30.07,SW,217,0.0,8.0,78,0.00,,---,0.00,VWS V14.01,2013-02-12 12:07:00,
2013-02-12 07:12:00,28.7,22.7,30.08,WNW,295,1.0,10.0,78,0.00,,---,0.00,VWS V14.01,2013-02-12 12:12:00,
2013-02-12 07:17:00,28.7,22.7,30.07,WNW,292,1.0,10.0,78,0.00,,---,0.00,VWS V14.01,2013-02-12 12:17:00,
2013-02-12 07:22:00,28.6,22.6,30.07,WNW,296,2.0,10.0,78,0.00,,---,0.00,VWS V14.01,2013-02-12 12:22:00,
2013-02-12 07:27:00,28.6,22.6,30.08,NNW,341,2.0,10.0,78,0.00,,---,0.00,VWS V14.01,2013-02-12 12:27:00,
2013-02-12 07:30:00,28.8,22.5,30.09,WSW,250,0.0,9.0,77,0.00,,---,0.00,VWS V14.01,2013-02-12 12:30:00,
2013-02-12 07:32:00,28.6,22.9,30.08,WNW,290,3.0,10.0,79,0.00,,---,0.00,VWS V14.01,2013-02-12 12:32:00,
2013-02-12 07:37:00,28.6,22.9,30.08,WNW,297,4.0,6.0,79,0.00,,---,0.00,VWS V14.01,2013-02-12 12:37:00,
2013-02-12 07:42:00,28.6,22.6,30.08,WSW,257,1.0,9.0,78,0.00,,---,0.00,VWS V14.01,2013-02-12 12:42:00,
2013-02-12 07:47:00,28.6,22.6,30.08,West,262,3.0,9.0,78,0.00,,---,0.00,VWS V14.01,2013-02-12 12:47:00,
2013-02-12 07:52:00,28.6,22.6,30.08,West,271,2.0,9.0,78,0.00,,---,0.00,VWS V14.01,2013-02-12 12:52:00,
2013-02-12 07:57:00,28.6,22.6,30.08,WNW,290,6.0,9.0,78,0.00,,---,0.00,VWS V14.01,2013-02-12 12:57:00,
2013-02-12 08:00:00,29.3,23.3,30.10,WSW,250,2.0,9.0,78,0.00,,---,0.00,VWS V14.01,2013-02-12 13:00:00,
2013-02-12 08:02:00,28.6,22.6,30.09,West,263,2.0,11.0,78,0.00,,---,0.00,VWS V14.01,2013-02-12 13:02:00,
2013-02-12 08:07:00,28.6,22.6,30.08,South,170,0.0,3.0,78,0.00,,---,0.00,VWS V14.01,2013-02-12 13:07:00,
2013-02-12 08:12:00,28.6,22.6,30.09,SSW,204,3.0,9.0,78,0.00,,---,0.00,VWS V14.01,2013-02-12 13:12:00,
2013-02-12 08:17:00,28.6,22.3,30.09,SW,232,2.0,9.0,77,0.00,,---,0.00,VWS V14.01,2013-02-12 13:17:00,
2013-02-12 08:22:00,28.7,22.7,30.09,SW,230,5.0,9.0,78,0.00,,---,0.00,VWS V14.01,2013-02-12 13:22:00,
2013-02-12 08:27:00,28.7,22.7,30.09,WSW,257,1.0,9.0,78,0.00,,---,0.00,VWS V14.01,2013-02-12 13:27:00,
2013-02-12 08:30:00,29.7,23.7,30.10,WSW,239,4.0,7.0,78,0.00,,---,0.00,VWS V14.01,2013-02-12 13:30:00,
2013-02-12 08:32:00,28.8,22.5,30.09,WSW,250,0.0,0.0,77,0.00,,---,0.00,VWS V14.01,2013-02-12 13:32:00,
2013-02-12 08:37:00,28.8,22.8,30.09,West,281,3.0,9.0,78,0.00,,---,0.00,VWS V14.01,2013-02-12 13:37:00,
2013-02-12 08:42:00,28.9,22.9,30.09,WSW,250,1.0,9.0,78,0.00,,---,0.00,VWS V14.01,2013-02-12 13:42:00,
2013-02-12 08:47:00,28.9,22.6,30.09,West,269,2.0,9.0,77,0.00,,---,0.00,VWS V14.01,2013-02-12 13:47:00,
2013-02-12 08:52:00,29.0,23.0,30.09,NW,317,2.0,9.0,78,0.00,,---,0.00,VWS V14.01,2013-02-12 13:52:00,
2013-02-12 08:57:00,29.2,23.2,30.10,West,280,1.0,9.0,78,0.00,,---,0.00,VWS V14.01,2013-02-12 13:57:00,
2013-02-12 09:00:00,29.5,23.5,30.11,SSW,205,3.0,11.0,78,0.00,,---,0.00,VWS V14.01,2013-02-12 14:00:00,
2013-02-12 09:02:00,29.3,23.3,30.10,WNW,293,3.0,3.0,78,0.00,,---,0.00,VWS V14.01,2013-02-12 14:02:00,
2013-02-12 09:07:00,29.3,23.3,30.10,West,281,3.0,5.0,78,0.00,,---,0.00,VWS V14.01,2013-02-12 14:07:00,
2013-02-12 09:12:00,29.4,23.4,30.10,WNW,298,0.0,5.0,78,0.00,,---,0.00,VWS V14.01,2013-02-12 14:12:00,
2013-02-12 09:17:00,29.5,23.5,30.10,WNW,287,1.0,5.0,78,0.00,,---,0.00,VWS V14.01,2013-02-12 14:17:00,
2013-02-12 09:22:00,29.6,23.6,30.10,West,266,1.0,5.0,78,0.00,,---,0.00,VWS V14.01,2013-02-12 14:22:00,
2013-02-12 09:27:00,29.6,23.3,30.10,WSW,256,3.0,7.0,77,0.00,,---,0.00,VWS V14.01,2013-02-12 14:27:00,
2013-02-12 09:30:00,30.1,23.5,30.09,West,271,4.0,10.0,76,0.00,,---,0.00,VWS V14.01,2013-02-12 14:30:00,
2013-02-12 09:32:00,29.7,23.7,30.10,SW,228,2.0,4.0,78,0.00,,---,0.00,VWS V14.01,2013-02-12 14:32:00,
2013-02-12 09:37:00,29.7,23.7,30.10,SW,236,2.0,5.0,78,0.00,,---,0.00,VWS V14.01,2013-02-12 14:37:00,
2013-02-12 09:42:00,29.8,24.1,30.10,WSW,250,2.0,6.0,79,0.00,,---,0.00,VWS V14.01,2013-02-12 14:42:00,
2013-02-12 09:47:00,29.6,23.6,30.10,SSW,195,2.0,8.0,78,0.00,,---,0.00,VWS V14.01,2013-02-12 14:47:00,
2013-02-12 09:52:00,29.5,23.5,30.10,WSW,253,1.0,9.0,78,0.00,,---,0.00,VWS V14.01,2013-02-12 14:52:00,
2013-02-12 09:57:00,29.5,23.8,30.10,SSW,203,3.0,9.0,79,0.00,,---,0.00,VWS V14.01,2013-02-12 14:57:00,
2013-02-12 10:00:00,30.6,23.3,30.09,WSW,252,3.0,8.0,74,0.00,,---,0.00,VWS V14.01,2013-02-12 15:00:00,
2013-02-12 10:02:00,29.5,23.5,30.10,SE,142,2.0,3.0,78,0.00,,---,0.00,VWS V14.01,2013-02-12 15:02:00,
2013-02-12 10:07:00,29.7,23.7,30.11,WSW,240,7.0,10.0,78,0.00,,---,0.00,VWS V14.01,2013-02-12 15:07:00,
2013-02-12 10:12:00,29.7,23.4,30.11,SW,236,2.0,10.0,77,0.00,,---,0.00,VWS V14.01,2013-02-12 15:12:00,
2013-02-12 10:17:00,29.6,23.3,30.10,West,267,1.0,10.0,77,0.00,,---,0.00,VWS V14.01,2013-02-12 15:17:00,
2013-02-12 10:22:00,29.9,23.6,30.10,SW,231,1.0,10.0,77,0.00,,---,0.00,VWS V14.01,2013-02-12 15:22:00,
2013-02-12 10:27:00,29.9,23.0,30.10,WNW,302,2.0,10.0,75,0.00,,---,0.00,VWS V14.01,2013-02-12 15:27:00,
2013-02-12 10:30:00,31.3,23.3,30.10,WSW,238,0.0,12.0,72,0.00,,---,0.00,VWS V14.01,2013-02-12 15:30:00,
2013-02-12 10:32:00,30.1,23.5,30.09,SW,220,3.0,4.0,76,0.00,,---,0.00,VWS V14.01,2013-02-12 15:32:00,
2013-02-12 10:37:00,30.2,23.2,30.09,WNW,282,3.0,6.0,75,0.00,,---,0.00,VWS V14.01,2013-02-12 15:37:00,
2013-02-12 10:42:00,30.1,23.1,30.10,NW,305,3.0,6.0,75,0.00,,---,0.00,VWS V14.01,2013-02-12 15:42:00,
2013-02-12 10:47:00,30.5,23.2,30.10,WSW,246,7.0,7.0,74,0.00,,---,0.00,VWS V14.01,2013-02-12 15:47:00,
2013-02-12 10:52:00,30.5,23.2,30.10,WNW,288,1.0,8.0,74,0.00,,---,0.00,VWS V14.01,2013-02-12 15:52:00,
2013-02-12 10:57:00,30.3,23.0,30.10,WSW,245,2.0,8.0,74,0.00,,---,0.00,VWS V14.01,2013-02-12 15:57:00,
2013-02-12 11:00:00,32.4,23.4,30.09,West,259,5.0,11.0,69,0.00,,---,0.00,VWS V14.01,2013-02-12 16:00:00,
2013-02-12 11:02:00,30.7,23.4,30.10,South,187,4.0,4.0,74,0.00,,---,0.00,VWS V14.01,2013-02-12 16:02:00,
2013-02-12 11:07:00,30.9,23.3,30.09,West,271,2.0,8.0,73,0.00,,---,0.00,VWS V14.01,2013-02-12 16:07:00,
2013-02-12 11:12:00,31.1,23.1,30.09,SW,231,7.0,8.0,72,0.00,,---,0.00,VWS V14.01,2013-02-12 16:12:00,
2013-02-12 11:17:00,31.3,23.0,30.09,WSW,250,6.0,12.0,71,0.00,,---,0.00,VWS V14.01,2013-02-12 16:17:00,
2013-02-12 11:22:00,30.9,23.0,30.09,SW,221,5.0,12.0,72,0.00,,---,0.00,VWS V14.01,2013-02-12 16:22:00,
2013-02-12 11:27:00,31.1,23.5,30.10,SW,222,3.0,12.0,73,0.00,,---,0.00,VWS V14.01,2013-02-12 16:27:00,
2013-02-12 11:30:00,33.5,24.8,30.06,SSW,204,4.0,11.0,70,0.00,,---,0.00,VWS V14.01,2013-02-12 16:30:00,
2013-02-12 11:32:00,31.3,23.3,30.10,West,276,0.0,1.0,72,0.00,,---,0.00,VWS V14.01,2013-02-12 16:32:00,
2013-02-12 11:37:00,31.2,23.6,30.10,WSW,241,4.0,6.0,73,0.00,,---,0.00,VWS V14.01,2013-02-12 16:37:00,
2013-02-12 11:42:00,31.4,23.4,30.09,WNW,288,3.0,7.0,72,0.00,,---,0.00,VWS V14.01,2013-02-12 16:42:00,
2013-02-12 11:47:00,31.5,23.2,30.10,West,266,3.0,7.0,71,0.00,,---,0.00,VWS V14.01,2013-02-12 16:47:00,
2013-02-12 11:52:00,32.3,24.3,30.09,West,264,3.0,7.0,72,0.00,,---,0.00,VWS V14.01,2013-02-12 16:52:00,
2013-02-12 11:57:00,32.4,23.7,30.09,West,278,4.0,11.0,70,0.00,,---,0.00,VWS V14.01,2013-02-12 16:57:00,
2013-02-12 12:00:00,33.9,25.5,30.04,WNW,283,2.0,8.0,71,0.00,,---,0.00,VWS V14.01,2013-02-12 17:00:00,
2013-02-12 12:02:00,32.4,23.4,30.09,West,270,3.0,5.0,69,0.00,,---,0.00,VWS V14.01,2013-02-12 17:02:00,
2013-02-12 12:07:00,32.0,23.3,30.08,SW,222,1.0,7.0,70,0.00,,---,0.00,VWS V14.01,2013-02-12 17:07:00,
2013-02-12 12:12:00,32.4,24.1,30.08,SW,219,7.0,8.0,71,0.00,,---,0.00,VWS V14.01,2013-02-12 17:12:00,
2013-02-12 12:17:00,33.0,24.3,30.08,WNW,302,2.0,8.0,70,0.00,,---,0.00,VWS V14.01,2013-02-12 17:17:00,
2013-02-12 12:22:00,33.2,24.5,30.07,WNW,297,3.0,8.0,70,0.00,,---,0.00,VWS V14.01,2013-02-12 17:22:00,
2013-02-12 12:27:00,33.7,25.0,30.07,SSW,198,4.0,11.0,70,0.00,,---,0.00,VWS V14.01,2013-02-12 17:27:00,
2013-02-12 12:30:00,33.7,25.0,30.01,SSW,203,2.0,10.0,70,0.00,,---,0.00,VWS V14.01,2013-02-12 17:30:00,
2013-02-12 12:32:00,33.5,24.4,30.06,WSW,237,3.0,4.0,69,0.00,,---,0.00,VWS V14.01,2013-02-12 17:32:00,
2013-02-12 12:37:00,33.5,24.8,30.06,WSW,249,5.0,8.0,70,0.00,,---,0.00,VWS V14.01,2013-02-12 17:37:00,
2013-02-12 12:42:00,32.9,24.2,30.05,WNW,286,1.0,8.0,70,0.00,,---,0.00,VWS V14.01,2013-02-12 17:42:00,
2013-02-12 12:47:00,33.3,24.6,30.05,SW,222,1.0,8.0,70,0.00,,---,0.00,VWS V14.01,2013-02-12 17:47:00,
2013-02-12 12:52:00,34.0,25.6,30.04,SW,229,7.0,8.0,71,0.00,,---,0.00,VWS V14.01,2013-02-12 17:52:00,
2013-02-12 12:57:00,33.8,25.4,30.04,SW,233,4.0,8.0,71,0.00,,---,0.00,VWS V14.01,2013-02-12 17:57:00,
2013-02-12 13:00:00,35.5,26.4,30.01,SW,236,4.0,13.0,69,0.00,,---,0.00,VWS V14.01,2013-02-12 18:00:00,
2013-02-12 13:02:00,34.0,25.6,30.03,WNW,291,1.0,3.0,71,0.00,,---,0.00,VWS V14.01,2013-02-12 18:02:00,
2013-02-12 13:07:00,34.3,25.5,30.03,WNW,299,4.0,10.0,70,0.00,,---,0.00,VWS V14.01,2013-02-12 18:07:00,
2013-02-12 13:12:00,34.3,25.5,30.02,SW,233,8.0,10.0,70,0.00,,---,0.00,VWS V14.01,2013-02-12 18:12:00,
2013-02-12 13:17:00,34.4,26.3,30.02,SSW,194,6.0,10.0,72,0.00,,---,0.00,VWS V14.01,2013-02-12 18:17:00,
2013-02-12 13:22:00,34.3,25.2,30.02,South,181,3.0,10.0,69,0.00,,---,0.00,VWS V14.01,2013-02-12 18:22:00,
2013-02-12 13:27:00,34.1,25.0,30.01,WNW,295,4.0,10.0,69,0.00,,---,0.00,VWS V14.01,2013-02-12 18:27:00,
2013-02-12 13:32:00,33.8,25.1,30.01,SW,219,2.0,3.0,70,0.00,,---,0.00,VWS V14.01,2013-02-12 18:32:00,
2013-02-12 13:37:00,34.4,25.6,30.00,West,263,2.0,9.0,70,0.00,,---,0.00,VWS V14.01,2013-02-12 18:37:00,
2013-02-12 13:42:00,35.1,26.0,30.00,SSW,211,6.0,11.0,69,0.00,,---,0.00,VWS V14.01,2013-02-12 18:42:00,
2013-02-12 13:48:00,34.6,25.1,30.00,SSW,194,1.0,11.0,68,0.00,,---,0.00,VWS V14.01,2013-02-12 18:48:00,
2013-02-12 13:53:00,35.2,26.1,30.00,SW,231,4.0,11.0,69,0.00,,---,0.00,VWS V14.01,2013-02-12 18:53:00,
2013-02-12 13:58:00,35.2,25.7,30.01,West,269,1.0,11.0,68,0.00,,---,0.00,VWS V14.01,2013-02-12 18:58:00,
2013-02-12 14:00:00,36.2,26.7,30.01,SSW,212,5.0,12.0,68,0.00,,---,0.00,VWS V14.01,2013-02-12 19:00:00,
2013-02-12 14:03:00,35.6,26.5,30.01,WNW,293,6.0,6.0,69,0.00,,---,0.00,VWS V14.01,2013-02-12 19:03:00,
2013-02-12 14:08:00,36.1,27.3,30.01,WSW,256,5.0,7.0,70,0.00,,---,0.00,VWS V14.01,2013-02-12 19:08:00,
2013-02-12 14:13:00,36.1,26.6,30.00,SSE,152,3.0,7.0,68,0.00,,---,0.00,VWS V14.01,2013-02-12 19:13:00,
2013-02-12 14:18:00,36.3,27.1,30.00,NW,321,1.0,7.0,69,0.00,,---,0.00,VWS V14.01,2013-02-12 19:18:00,
2013-02-12 14:23:00,35.6,25.7,30.01,SW,232,3.0,7.0,67,0.00,,---,0.00,VWS V14.01,2013-02-12 19:23:00,
2013-02-12 14:28:00,36.3,27.1,30.01,West,269,3.0,7.0,69,0.00,,---,0.00,VWS V14.01,2013-02-12 19:28:00,
2013-02-12 14:33:00,36.5,26.6,30.01,West,259,3.0,7.0,67,0.00,,---,0.00,VWS V14.01,2013-02-12 19:33:00,
2013-02-12 14:38:00,35.8,25.9,30.01,SSW,201,0.0,7.0,67,0.00,,---,0.00,VWS V14.01,2013-02-12 19:38:00,
2013-02-12 14:43:00,35.7,26.5,30.00,SSW,208,3.0,12.0,69,0.00,,---,0.00,VWS V14.01,2013-02-12 19:43:00,
2013-02-12 14:48:00,35.9,26.7,30.00,SW,224,7.0,12.0,69,0.00,,---,0.00,VWS V14.01,2013-02-12 19:48:00,
2013-02-12 14:53:00,36.5,27.7,30.00,SSW,205,3.0,12.0,70,0.00,,---,0.00,VWS V14.01,2013-02-12 19:53:00,
2013-02-12 14:58:00,36.5,27.0,30.01,SSW,198,3.0,12.0,68,0.00,,---,0.00,VWS V14.01,2013-02-12 19:58:00,
2013-02-12 15:00:00,36.7,27.5,30.01,West,273,8.0,11.0,69,0.00,,---,0.00,VWS V14.01,2013-02-12 20:00:00,
2013-02-12 15:03:00,36.1,26.9,30.01,WSW,243,7.0,7.0,69,0.00,,---,0.00,VWS V14.01,2013-02-12 20:03:00,
2013-02-12 15:08:00,36.0,26.8,30.01,West,260,2.0,7.0,69,0.00,,---,0.00,VWS V14.01,2013-02-12 20:08:00,
2013-02-12 15:13:00,36.5,28.0,30.01,SW,229,1.0,7.0,71,0.00,,---,0.00,VWS V14.01,2013-02-12 20:13:00,
2013-02-12 15:18:00,36.5,27.3,30.01,SW,232,4.0,8.0,69,0.00,,---,0.00,VWS V14.01,2013-02-12 20:18:00,
2013-02-12 15:23:00,36.2,27.4,30.01,SSW,212,2.0,8.0,70,0.00,,---,0.00,VWS V14.01,2013-02-12 20:23:00,
2013-02-12 15:28:00,36.7,26.8,30.01,WSW,242,3.0,9.0,67,0.00,,---,0.00,VWS V14.01,2013-02-12 20:28:00,
2013-02-12 15:30:00,35.9,26.4,30.01,West,264,2.0,15.0,68,0.00,,---,0.00,VWS V14.01,2013-02-12 20:30:00,
2013-02-12 15:33:00,36.6,27.0,30.01,NW,325,0.0,4.0,68,0.00,,---,0.00,VWS V14.01,2013-02-12 20:33:00,
2013-02-12 15:38:00,36.5,27.0,30.01,SW,222,2.0,11.0,68,0.00,,---,0.00,VWS V14.01,2013-02-12 20:38:00,
2013-02-12 15:44:00,36.5,27.3,30.01,West,259,4.0,11.0,69,0.00,,---,0.00,VWS V14.01,2013-02-12 20:44:00,
2013-02-12 15:49:00,36.0,26.5,30.01,West,264,9.0,11.0,68,0.00,,---,0.00,VWS V14.01,2013-02-12 20:49:00,
2013-02-12 15:54:00,35.9,26.7,30.02,WSW,250,3.0,11.0,69,0.00,,---,0.00,VWS V14.01,2013-02-12 20:54:00,
2013-02-12 15:59:00,36.3,27.1,30.01,WSW,245,5.0,11.0,69,0.00,,---,0.00,VWS V14.01,2013-02-12 20:59:00,
2013-02-12 16:00:00,34.7,26.6,30.00,SSW,212,5.0,11.0,72,0.00,,---,0.00,VWS V14.01,2013-02-12 21:00:00,
2013-02-12 16:04:00,36.6,27.0,30.02,SW,218,1.0,8.0,68,0.00,,---,0.00,VWS V14.01,2013-02-12 21:04:00,
2013-02-12 16:09:00,36.6,27.4,30.01,West,269,1.0,8.0,69,0.00,,---,0.00,VWS V14.01,2013-02-12 21:09:00,
2013-02-12 16:14:00,36.4,26.5,30.02,SW,224,4.0,10.0,67,0.00,,---,0.00,VWS V14.01,2013-02-12 21:14:00,
2013-02-12 16:19:00,36.3,27.1,30.02,SW,216,2.0,10.0,69,0.00,,---,0.00,VWS V14.01,2013-02-12 21:19:00,
2013-02-12 16:24:00,36.8,27.2,30.01,WSW,248,10.0,12.0,68,0.00,,---,0.00,VWS V14.01,2013-02-12 21:24:00,
2013-02-12 16:29:00,36.2,26.3,30.01,SSW,197,4.0,15.0,67,0.00,,---,0.00,VWS V14.01,2013-02-12 21:29:00,
2013-02-12 16:30:00,33.5,26.4,30.00,SW,218,3.0,10.0,75,0.00,,---,0.00,VWS V14.01,2013-02-12 21:30:00,
2013-02-12 16:34:00,35.6,26.1,30.01,West,274,2.0,9.0,68,0.00,,---,0.00,VWS V14.01,2013-02-12 21:34:00,
2013-02-12 16:39:00,35.5,26.4,30.00,WSW,241,6.0,9.0,69,0.00,,---,0.00,VWS V14.01,2013-02-12 21:39:00,
2013-02-12 16:44:00,35.5,26.7,30.00,SW,231,5.0,11.0,70,0.00,,---,0.00,VWS V14.01,2013-02-12 21:44:00,
2013-02-12 16:49:00,35.2,26.4,30.00,West,262,4.0,11.0,70,0.00,,---,0.00,VWS V14.01,2013-02-12 21:49:00,
2013-02-12 16:54:00,34.9,26.5,30.01,WSW,245,8.0,11.0,71,0.00,,---,0.00,VWS V14.01,2013-02-12 21:54:00,
2013-02-12 16:59:00,34.7,26.6,30.01,West,261,4.0,11.0,72,0.00,,---,0.00,VWS V14.01,2013-02-12 21:59:00,
2013-02-12 17:00:00,31.8,25.1,30.00,SSW,198,1.0,14.0,76,0.00,,---,0.00,VWS V14.01,2013-02-12 22:00:00,
2013-02-12 17:04:00,34.7,26.6,30.01,WNW,293,1.0,5.0,72,0.00,,---,0.00,VWS V14.01,2013-02-12 22:04:00,
2013-02-12 17:09:00,34.5,26.8,30.01,SSW,212,1.0,8.0,73,0.00,,---,0.00,VWS V14.01,2013-02-12 22:09:00,
2013-02-12 17:14:00,34.2,26.5,30.01,WSW,245,4.0,10.0,73,0.00,,---,0.00,VWS V14.01,2013-02-12 22:14:00,
2013-02-12 17:19:00,33.9,26.2,30.00,WSW,255,1.0,10.0,73,0.00,,---,0.00,VWS V14.01,2013-02-12 22:19:00,
2013-02-12 17:24:00,33.7,26.3,30.00,SW,236,0.0,10.0,74,0.00,,---,0.00,VWS V14.01,2013-02-12 22:24:00,
2013-02-12 17:29:00,33.6,26.2,30.00,WSW,248,2.0,10.0,74,0.00,,---,0.00,VWS V14.01,2013-02-12 22:29:00,
2013-02-12 17:30:00,31.1,25.4,29.99,WSW,255,1.0,9.0,79,0.00,,---,0.00,VWS V14.01,2013-02-12 22:30:00,
2013-02-12 17:34:00,33.3,25.9,30.00,SSW,204,3.0,12.0,74,0.00,,---,0.00,VWS V14.01,2013-02-12 22:34:00,
2013-02-12 17:39:00,32.8,25.8,30.00,WNW,287,6.0,12.0,75,0.00,,---,0.00,VWS V14.01,2013-02-12 22:39:00,
2013-02-12 17:44:00,32.5,25.5,30.00,SW,225,8.0,12.0,75,0.00,,---,0.00,VWS V14.01,2013-02-12 22:44:00,
2013-02-12 17:49:00,32.3,25.6,30.00,SW,228,6.0,12.0,76,0.00,,---,0.00,VWS V14.01,2013-02-12 22:49:00,
2013-02-12 17:54:00,32.1,25.4,30.00,West,259,5.0,12.0,76,0.00,,---,0.00,VWS V14.01,2013-02-12 22:54:00,
2013-02-12 17:59:00,32.0,25.3,30.00,WSW,237,6.0,12.0,76,0.00,,---,0.00,VWS V14.01,2013-02-12 22:59:00,
2013-02-12 18:00:00,30.4,25.0,30.00,WSW,256,1.0,10.0,80,0.00,,---,0.00,VWS V14.01,2013-02-12 23:00:00,
2013-02-12 18:04:00,31.7,25.0,30.00,SW,233,0.0,4.0,76,0.00,,---,0.00,VWS V14.01,2013-02-12 23:04:00,
2013-02-12 18:09:00,31.6,25.2,29.99,WSW,248,3.0,7.0,77,0.00,,---,0.00,VWS V14.01,2013-02-12 23:09:00,
2013-02-12 18:14:00,31.4,25.4,29.99,West,277,5.0,7.0,78,0.00,,---,0.00,VWS V14.01,2013-02-12 23:14:00,
2013-02-12 18:19:00,31.3,25.2,29.99,WNW,283,2.0,7.0,78,0.00,,---,0.00,VWS V14.01,2013-02-12 23:19:00,
2013-02-12 18:24:00,31.2,25.5,29.99,SW,215,1.0,7.0,79,0.00,,---,0.00,VWS V14.01,2013-02-12 23:24:00,
2013-02-12 18:29:00,31.2,25.5,29.99,WSW,243,1.0,9.0,79,0.00,,---,0.00,VWS V14.01,2013-02-12 23:29:00,
2013-02-12 18:30:00,30.0,24.6,29.99,SW,214,0.0,8.0,80,0.00,,---,0.00,VWS V14.01,2013-02-12 23:30:00,
2013-02-12 18:34:00,31.1,25.4,29.99,West,280,3.0,6.0,79,0.00,,---,0.00,VWS V14.01,2013-02-12 23:34:00,
2013-02-12 18:39:00,31.0,25.3,30.00,SW,222,8.0,10.0,79,0.00,,---,0.00,VWS V14.01,2013-02-12 23:39:00,
2013-02-12 18:44:00,30.8,25.1,30.00,NW,323,2.0,10.0,79,0.00,,---,0.00,VWS V14.01,2013-02-12 23:44:00,
2013-02-12 18:50:00,30.6,24.9,30.00,NW,315,2.0,10.0,79,0.00,,---,0.00,VWS V14.01,2013-02-12 23:50:00,
2013-02-12 18:54:00,30.5,24.8,30.00,NW,316,4.0,10.0,79,0.00,,---,0.00,VWS V14.01,2013-02-12 23:54:00,
2013-02-12 19:00:00,30.4,25.0,30.00,West,264,1.0,10.0,80,0.00,,---,0.00,VWS V14.01,2013-02-13 00:00:00,
2013-02-12 19:05:00,30.4,24.7,30.00,WNW,288,3.0,8.0,79,0.00,,---,0.00,VWS V14.01,2013-02-13 00:05:00,
2013-02-12 19:10:00,30.4,24.7,30.00,SW,218,2.0,8.0,79,0.00,,---,0.00,VWS V14.01,2013-02-13 00:10:00,
2013-02-12 19:15:00,30.3,24.6,30.00,West,277,3.0,8.0,79,0.00,,---,0.00,VWS V14.01,2013-02-13 00:15:00,
2013-02-12 19:20:00,30.2,24.5,29.99,West,267,3.0,8.0,79,0.00,,---,0.00,VWS V14.01,2013-02-13 00:20:00,
2013-02-12 19:25:00,30.1,24.4,29.99,NW,309,4.0,8.0,79,0.00,,---,0.00,VWS V14.01,2013-02-13 00:25:00,
2013-02-12 19:30:00,30.1,24.7,29.99,WSW,252,0.0,8.0,80,0.00,,---,0.00,VWS V14.01,2013-02-13 00:30:00,
2013-02-12 19:35:00,30.0,24.6,29.99,NW,326,0.0,4.0,80,0.00,,---,0.00,VWS V14.01,2013-02-13 00:35:00,
2013-02-12 19:40:00,30.0,24.6,29.99,West,267,2.0,4.0,80,0.00,,---,0.00,VWS V14.01,2013-02-13 00:40:00,
2013-02-12 19:45:00,30.0,24.6,29.99,WSW,257,0.0,6.0,80,0.00,,---,0.00,VWS V14.01,2013-02-13 00:45:00,
2013-02-12 19:50:00,30.0,24.9,29.99,NNW,327,6.0,6.0,81,0.00,,---,0.00,VWS V14.01,2013-02-13 00:50:00,
2013-02-12 19:55:00,29.9,24.5,29.99,NW,304,0.0,8.0,80,0.00,,---,0.00,VWS V14.01,2013-02-13 00:55:00,
2013-02-12 20:00:00,29.8,24.4,29.99,WNW,284,2.0,8.0,80,0.00,,---,0.00,VWS V14.01,2013-02-13 01:00:00,
2013-02-12 20:05:00,29.7,24.3,29.98,WNW,302,3.0,7.0,80,0.00,,---,0.00,VWS V14.01,2013-02-13 01:05:00,
2013-02-12 20:10:00,29.6,24.2,29.99,SW,223,4.0,9.0,80,0.00,,---,0.00,VWS V14.01,2013-02-13 01:10:00,
2013-02-12 20:15:00,29.5,24.1,29.99,West,276,3.0,9.0,80,0.00,,---,0.00,VWS V14.01,2013-02-13 01:15:00,
2013-02-12 20:20:00,29.4,24.0,29.98,West,260,3.0,9.0,80,0.00,,---,0.00,VWS V14.01,2013-02-13 01:20:00,
2013-02-12 20:25:00,29.4,24.0,29.99,West,264,0.0,9.0,80,0.00,,---,0.00,VWS V14.01,2013-02-13 01:25:00,
2013-02-12 20:30:00,29.4,24.0,29.98,NNW,329,1.0,9.0,80,0.00,,---,0.00,VWS V14.01,2013-02-13 01:30:00,
2013-02-12 20:35:00,29.4,24.0,29.98,WNW,298,0.0,3.0,80,0.00,,---,0.00,VWS V14.01,2013-02-13 01:35:00,
2013-02-12 20:40:00,29.4,24.3,29.99,SW,217,2.0,4.0,81,0.00,,---,0.00,VWS V14.01,2013-02-13 01:40:00,
2013-02-12 20:45:00,29.4,24.3,29.98,WSW,249,1.0,4.0,81,0.00,,---,0.00,VWS V14.01,2013-02-13 01:45:00,
2013-02-12 20:50:00,29.4,24.3,29.98,WNW,295,0.0,7.0,81,0.00,,---,0.00,VWS V14.01,2013-02-13 01:50:00,
2013-02-12 20:55:00,29.4,24.3,29.98,NW,308,1.0,7.0,81,0.00,,---,0.00,VWS V14.01,2013-02-13 01:55:00,
2013-02-12 21:00:00,29.4,24.3,29.98,NW,315,3.0,7.0,81,0.00,,---,0.00,VWS V14.01,2013-02-13 02:00:00,
2013-02-12 21:05:00,29.4,24.3,29.98,WNW,287,1.0,3.0,81,0.00,,---,0.00,VWS V14.01,2013-02-13 02:05:00,
2013-02-12 21:10:00,29.4,24.3,29.98,NW,326,3.0,6.0,81,0.00,,---,0.00,VWS V14.01,2013-02-13 02:10:00,
2013-02-12 21:15:00,29.4,24.0,29.98,NW,317,2.0,6.0,80,0.00,,---,0.00,VWS V14.01,2013-02-13 02:15:00,
2013-02-12 21:20:00,29.3,23.6,29.98,WNW,288,1.0,11.0,79,0.00,,---,0.00,VWS V14.01,2013-02-13 02:20:00,
2013-02-12 21:25:00,29.3,23.9,29.97,WSW,256,0.0,11.0,80,0.00,,---,0.00,VWS V14.01,2013-02-13 02:25:00,
2013-02-12 21:30:00,29.2,23.8,29.97,West,272,1.0,11.0,80,0.00,,---,0.00,VWS V14.01,2013-02-13 02:30:00,
2013-02-12 21:35:00,29.2,23.8,29.97,WNW,300,3.0,5.0,80,0.00,,---,0.00,VWS V14.01,2013-02-13 02:35:00,
2013-02-12 21:40:00,29.2,23.8,29.97,WSW,241,0.0,5.0,80,0.00,,---,0.00,VWS V14.01,2013-02-13 02:40:00,
2013-02-12 21:45:00,29.2,23.8,29.97,West,260,1.0,5.0,80,0.00,,---,0.00,VWS V14.01,2013-02-13 02:45:00,
2013-02-12 21:50:00,29.2,23.8,29.97,WNW,288,0.0,5.0,80,0.00,,---,0.00,VWS V14.01,2013-02-13 02:50:00,
2013-02-12 21:55:00,29.2,23.8,29.96,West,274,1.0,5.0,80,0.00,,---,0.00,VWS V14.01,2013-02-13 02:55:00,
2013-02-12 22:00:00,29.2,23.8,29.96,WSW,247,3.0,5.0,80,0.00,,---,0.00,VWS V14.01,2013-02-13 03:00:00,
2013-02-12 22:05:00,29.2,23.8,29.96,WSW,245,0.0,3.0,80,0.00,,---,0.00,VWS V14.01,2013-02-13 03:05:00,
2013-02-12 22:10:00,29.2,23.8,29.96,West,277,0.0,4.0,80,0.00,,---,0.00,VWS V14.01,2013-02-13 03:10:00,
2013-02-12 22:15:00,29.2,24.1,29.96,WSW,253,3.0,4.0,81,0.00,,---,0.00,VWS V14.01,2013-02-13 03:15:00,
2013-02-12 22:20:00,29.2,23.8,29.97,WNW,291,0.0,4.0,80,0.00,,---,0.00,VWS V14.01,2013-02-13 03:20:00,
2013-02-12 22:25:00,29.3,24.2,29.96,NNW,348,3.0,4.0,81,0.00,,---,0.00,VWS V14.01,2013-02-13 03:25:00,
2013-02-12 22:30:00,29.2,23.8,29.96,NW,312,2.0,5.0,80,0.00,,---,0.00,VWS V14.01,2013-02-13 03:30:00,
2013-02-12 22:35:00,29.1,23.7,29.96,NNW,331,2.0,4.0,80,0.00,,---,0.00,VWS V14.01,2013-02-13 03:35:00,
2013-02-12 22:40:00,29.1,24.0,29.96,NW,321,2.0,4.0,81,0.00,,---,0.00,VWS V14.01,2013-02-13 03:40:00,
2013-02-12 22:45:00,29.0,23.6,29.96,NW,319,2.0,5.0,80,0.00,,---,0.00,VWS V14.01,2013-02-13 03:45:00,
2013-02-12 22:50:00,29.0,23.6,29.96,NW,319,1.0,5.0,80,0.00,,---,0.00,VWS V14.01,2013-02-13 03:50:00,
2013-02-12 22:55:00,29.0,23.6,29.96,NW,323,2.0,5.0,80,0.00,,---,0.00,VWS V14.01,2013-02-13 03:55:00,
2013-02-12 23:00:00,29.0,23.9,29.96,NW,321,0.0,5.0,81,0.00,,---,0.00,VWS V14.01,2013-02-13 04:00:00,
2013-02-12 23:05:00,28.9,23.5,29.96,NNW,327,4.0,6.0,80,0.00,,---,0.00,VWS V14.01,2013-02-13 04:05:00,
2013-02-12 23:10:00,28.7,23.3,29.96,NNW,329,2.0,6.0,80,0.00,,---,0.00,VWS V14.01,2013-02-13 04:10:00,
2013-02-12 23:15:00,28.5,23.1,29.95,NW,307,3.0,6.0,80,0.00,,---,0.00,VWS V14.01,2013-02-13 04:15:00,
2013-02-12 23:20:00,28.5,23.1,29.95,NW,311,1.0,6.0,80,0.00,,---,0.00,VWS V14.01,2013-02-13 04:20:00,
2013-02-12 23:25:00,28.5,23.1,29.95,WNW,284,0.0,6.0,80,0.00,,---,0.00,VWS V14.01,2013-02-13 04:25:00,
2013-02-12 23:30:00,28.4,23.0,29.95,West,259,2.0,6.0,80,0.00,,---,0.00,VWS V14.01,2013-02-13 04:30:00,
2013-02-12 23:35:00,28.3,23.2,29.95,NW,316,0.0,2.0,81,0.00,,---,0.00,VWS V14.01,2013-02-13 04:35:00,
2013-02-12 23:40:00,28.3,23.2,29.95,West,271,0.0,2.0,81,0.00,,---,0.00,VWS V14.01,2013-02-13 04:40:00,
2013-02-12 23:45:00,28.2,23.1,29.95,WSW,255,1.0,3.0,81,0.00,,---,0.00,VWS V14.01,2013-02-13 04:45:00,
2013-02-12 23:50:00,28.3,23.2,29.95,NW,311,0.0,4.0,81,0.00,,---,0.00,VWS V14.01,2013-02-13 04:50:00,
2013-02-12 23:56:00,28.3,23.2,29.95,West,277,3.0,4.0,81,0.00,,---,0.00,VWS V14.01,2013-02-13 04:56:00,